User: anonymous
Location: Unspecified
(0.0000°N, 0.0000°E)
Time: 08:19:33
(UTC+02:00)
Language:

Meteor 2-8 Rocket - Orbit

View from above orbital plane
View from above orbital plane
View from above satellite
View from above satellite

Ground track
Ground track

The orbit data is extracted from the following two-line orbital elements,

1 13114U 82025B   14265.12509796  .00000008  00000-0 -66799-5 0  5070
2 13114 082.5364 277.7124 0015782 078.8678 343.0504 13.84629402642153
Epoch (UTC): 22 September 2014 03:00:08
Eccentricity: 0.0015782
inclination: 82.5364°
perigee height: 936 km
apogee height: 959 km
right ascension of ascending node: 277.7124°
argument of perigee: 78.8678°
revolutions per day: 13.84629402
mean anomaly at epoch: 343.0504°
orbit number at epoch: 64215

The dashed part of the orbit path shows where the satellite is in the earth's shadow,  

DLR